Year,Month,Day,Hour,Minute,Value (Times are PST for windspeed in km/hr)
2017,04,08,00,00,3.30
2017,04,08,00,01,2.00
2017,04,08,00,02,1.50
2017,04,08,00,03,4.00
2017,04,08,00,04,4.50
2017,04,08,00,05,2.50
2017,04,08,00,06,0.60
2017,04,08,00,07,0.90
2017,04,08,00,08,1.80
2017,04,08,00,09,1.20
2017,04,08,00,10,2.00
2017,04,08,00,11,1.70
2017,04,08,00,12,3.20
2017,04,08,00,13,2.70
2017,04,08,00,14,2.30
2017,04,08,00,15,1.70
2017,04,08,00,16,3.10
2017,04,08,00,17,3.20
2017,04,08,00,18,3.50
2017,04,08,00,19,4.50
2017,04,08,00,20,2.50
2017,04,08,00,21,4.30
2017,04,08,00,22,5.00
2017,04,08,00,23,4.70
2017,04,08,00,24,3.70
2017,04,08,00,25,4.00
2017,04,08,00,26,4.60
2017,04,08,00,27,2.90
2017,04,08,00,28,4.40
2017,04,08,00,29,5.40
2017,04,08,00,30,6.20
2017,04,08,00,31,5.80
2017,04,08,00,32,5.60
2017,04,08,00,33,4.50
2017,04,08,00,34,5.50
2017,04,08,00,35,4.20
2017,04,08,00,36,3.10
2017,04,08,00,37,3.50
2017,04,08,00,38,5.60
2017,04,08,00,39,8.00
2017,04,08,00,40,5.60
2017,04,08,00,41,4.90
2017,04,08,00,42,8.70
2017,04,08,00,43,7.20
2017,04,08,00,44,4.40
2017,04,08,00,45,2.90
2017,04,08,00,46,5.50
2017,04,08,00,47,4.10
2017,04,08,00,48,4.50
2017,04,08,00,49,6.00
2017,04,08,00,50,6.00
2017,04,08,00,51,3.70
2017,04,08,00,52,2.30
2017,04,08,00,53,3.10
2017,04,08,00,54,1.00
2017,04,08,00,55,2.30
2017,04,08,00,56,0.00
2017,04,08,00,57,0.00
2017,04,08,00,58,0.00
2017,04,08,00,59,0.00
2017,04,08,01,00,1.10
2017,04,08,01,01,0.30
2017,04,08,01,02,1.80
2017,04,08,01,03,0.10
2017,04,08,01,04,0.00
2017,04,08,01,05,0.10
2017,04,08,01,06,1.60
2017,04,08,01,07,1.90
2017,04,08,01,08,2.80
2017,04,08,01,09,4.70
2017,04,08,01,10,5.80
2017,04,08,01,11,5.00
2017,04,08,01,12,1.80
2017,04,08,01,13,3.00
2017,04,08,01,14,3.70
2017,04,08,01,15,3.60
2017,04,08,01,16,5.10
2017,04,08,01,17,9.80
2017,04,08,01,18,8.40
2017,04,08,01,19,8.60
2017,04,08,01,20,5.40
2017,04,08,01,21,6.30
2017,04,08,01,22,5.80
2017,04,08,01,23,4.20
2017,04,08,01,24,2.50
2017,04,08,01,25,2.10
2017,04,08,01,26,4.60
2017,04,08,01,27,4.30
2017,04,08,01,28,0.70
2017,04,08,01,29,2.10
2017,04,08,01,30,6.10
2017,04,08,01,31,8.00
2017,04,08,01,32,4.90
2017,04,08,01,33,7.40
2017,04,08,01,34,11.30
2017,04,08,01,35,7.70
2017,04,08,01,36,7.20
2017,04,08,01,37,4.10
2017,04,08,01,38,3.60
2017,04,08,01,39,2.70
2017,04,08,01,40,0.00
2017,04,08,01,41,1.40
2017,04,08,01,42,3.70
2017,04,08,01,43,2.30
2017,04,08,01,44,3.70
2017,04,08,01,45,3.40
2017,04,08,01,46,4.20
2017,04,08,01,47,6.30
2017,04,08,01,48,5.90
2017,04,08,01,49,5.50
2017,04,08,01,50,5.20
2017,04,08,01,51,6.40
2017,04,08,01,52,9.40
2017,04,08,01,53,10.00
2017,04,08,01,54,5.00
2017,04,08,01,55,7.40
2017,04,08,01,56,3.10
2017,04,08,01,57,7.70
2017,04,08,01,58,9.00
2017,04,08,01,59,6.40
2017,04,08,02,00,10.70
2017,04,08,02,01,8.60
2017,04,08,02,02,4.70
2017,04,08,02,03,5.60
2017,04,08,02,04,9.70
2017,04,08,02,05,10.40
2017,04,08,02,06,14.60
2017,04,08,02,07,9.40
2017,04,08,02,08,13.10
2017,04,08,02,09,10.20
2017,04,08,02,10,10.00
2017,04,08,02,11,6.70
2017,04,08,02,12,8.40
2017,04,08,02,13,10.20
2017,04,08,02,14,8.80
2017,04,08,02,15,8.90
2017,04,08,02,16,6.30
2017,04,08,02,17,5.60
2017,04,08,02,18,6.40
2017,04,08,02,19,6.80
2017,04,08,02,20,6.40
2017,04,08,02,21,10.50
2017,04,08,02,22,6.90
2017,04,08,02,23,7.80
2017,04,08,02,24,7.50
2017,04,08,02,25,6.10
2017,04,08,02,26,5.60
2017,04,08,02,27,6.70
2017,04,08,02,28,9.50
2017,04,08,02,29,7.10
2017,04,08,02,30,5.90
2017,04,08,02,31,6.10
2017,04,08,02,32,6.60
2017,04,08,02,33,8.30
2017,04,08,02,34,8.00
2017,04,08,02,35,5.70
2017,04,08,02,36,8.50
2017,04,08,02,37,10.50
2017,04,08,02,38,6.10
2017,04,08,02,39,6.40
2017,04,08,02,40,11.20
2017,04,08,02,41,9.00
2017,04,08,02,42,9.70
2017,04,08,02,43,11.20
2017,04,08,02,44,11.80
2017,04,08,02,45,12.40
2017,04,08,02,46,9.20
2017,04,08,02,47,6.80
2017,04,08,02,48,8.10
2017,04,08,02,49,8.30
2017,04,08,02,50,6.20
2017,04,08,02,51,4.80
2017,04,08,02,52,9.90
2017,04,08,02,53,12.10
2017,04,08,02,54,9.40
2017,04,08,02,55,11.60
2017,04,08,02,56,8.80
2017,04,08,02,57,4.20
2017,04,08,02,58,11.00
2017,04,08,02,59,12.70
2017,04,08,03,00,11.70
2017,04,08,03,01,14.50
2017,04,08,03,02,9.30
2017,04,08,03,03,11.60
2017,04,08,03,04,15.90
2017,04,08,03,05,11.50
2017,04,08,03,06,12.00
2017,04,08,03,07,9.90
2017,04,08,03,08,11.10
2017,04,08,03,09,9.70
2017,04,08,03,10,12.70
2017,04,08,03,11,12.30
2017,04,08,03,12,9.60
2017,04,08,03,13,11.60
2017,04,08,03,14,9.70
2017,04,08,03,15,11.40
2017,04,08,03,16,12.40
2017,04,08,03,17,10.20
2017,04,08,03,18,10.80
2017,04,08,03,19,8.60
2017,04,08,03,20,12.60
2017,04,08,03,21,20.50
2017,04,08,03,22,10.70
2017,04,08,03,23,6.40
2017,04,08,03,24,14.30
2017,04,08,03,25,14.90
2017,04,08,03,26,18.20
2017,04,08,03,27,15.20
2017,04,08,03,28,15.50
2017,04,08,03,29,15.10
2017,04,08,03,30,14.60
2017,04,08,03,31,15.90
2017,04,08,03,32,15.30
2017,04,08,03,33,23.60
2017,04,08,03,34,17.50
2017,04,08,03,35,20.30
2017,04,08,03,36,18.30
2017,04,08,03,37,24.20
2017,04,08,03,38,22.40
2017,04,08,03,39,20.40
2017,04,08,03,40,18.90
2017,04,08,03,41,15.90
2017,04,08,03,42,20.50
2017,04,08,03,43,19.70
2017,04,08,03,44,18.10
2017,04,08,03,45,22.40
2017,04,08,03,46,20.00
2017,04,08,03,47,11.00
2017,04,08,03,48,15.20
2017,04,08,03,49,19.10
2017,04,08,03,50,18.50
2017,04,08,03,51,14.50
2017,04,08,03,52,17.60
2017,04,08,03,53,9.10
2017,04,08,03,54,12.70
2017,04,08,03,55,8.60
2017,04,08,03,56,14.20
2017,04,08,03,57,11.90
2017,04,08,03,58,11.20
2017,04,08,03,59,9.10
2017,04,08,04,00,11.30
2017,04,08,04,01,8.00
2017,04,08,04,02,9.30
2017,04,08,04,03,10.20
2017,04,08,04,04,14.80
2017,04,08,04,05,7.00
2017,04,08,04,06,14.00
2017,04,08,04,07,12.90
2017,04,08,04,08,14.30
2017,04,08,04,09,8.70
2017,04,08,04,10,11.30
2017,04,08,04,11,9.10
2017,04,08,04,12,15.30
2017,04,08,04,13,12.70
2017,04,08,04,14,11.30
2017,04,08,04,15,12.10
2017,04,08,04,16,9.30
2017,04,08,04,17,9.20
2017,04,08,04,18,9.50
2017,04,08,04,19,8.40
2017,04,08,04,20,5.80
2017,04,08,04,21,6.70
2017,04,08,04,22,8.20
2017,04,08,04,23,9.70
2017,04,08,04,24,15.40
2017,04,08,04,25,10.00
2017,04,08,04,26,12.80
2017,04,08,04,27,10.20
2017,04,08,04,28,5.30
2017,04,08,04,29,6.40
2017,04,08,04,30,9.90
2017,04,08,04,31,11.10
2017,04,08,04,32,12.30
2017,04,08,04,33,10.50
2017,04,08,04,34,13.60
2017,04,08,04,35,14.20
2017,04,08,04,36,10.40
2017,04,08,04,37,10.40
2017,04,08,04,38,11.00
2017,04,08,04,39,13.40
2017,04,08,04,40,9.30
2017,04,08,04,41,10.60
2017,04,08,04,42,5.90
2017,04,08,04,43,6.80
2017,04,08,04,44,7.20
2017,04,08,04,45,9.40
2017,04,08,04,46,10.00
2017,04,08,04,47,7.80
2017,04,08,04,48,10.30
2017,04,08,04,49,8.40
2017,04,08,04,50,9.50
2017,04,08,04,51,7.40
2017,04,08,04,52,12.10
2017,04,08,04,53,8.10
2017,04,08,04,54,10.00
2017,04,08,04,55,9.10
2017,04,08,04,56,4.20
2017,04,08,04,57,5.30
2017,04,08,04,58,6.10
2017,04,08,04,59,6.50
2017,04,08,05,00,8.60
2017,04,08,05,01,4.40
2017,04,08,05,02,4.10
2017,04,08,05,03,5.60
2017,04,08,05,04,5.70
2017,04,08,05,05,5.10
2017,04,08,05,06,1.10
2017,04,08,05,07,7.50
2017,04,08,05,08,7.10
2017,04,08,05,09,5.50
2017,04,08,05,10,5.40
2017,04,08,05,11,1.50
2017,04,08,05,12,2.40
2017,04,08,05,13,3.10
2017,04,08,05,14,1.50
2017,04,08,05,15,0.20
2017,04,08,05,16,0.80
2017,04,08,05,17,0.60
2017,04,08,05,18,0.00
2017,04,08,05,19,0.00
2017,04,08,05,20,0.00
2017,04,08,05,21,0.00
2017,04,08,05,22,0.30
2017,04,08,05,23,3.90
2017,04,08,05,24,4.20
2017,04,08,05,25,2.40
2017,04,08,05,26,3.00
2017,04,08,05,27,3.00
2017,04,08,05,28,5.70
2017,04,08,05,29,3.90
2017,04,08,05,30,4.50
2017,04,08,05,31,4.30
2017,04,08,05,32,4.60
2017,04,08,05,33,4.80
2017,04,08,05,34,5.00
2017,04,08,05,35,4.60
2017,04,08,05,36,3.80
2017,04,08,05,37,4.70
2017,04,08,05,38,7.40
2017,04,08,05,39,6.90
2017,04,08,05,40,3.60
2017,04,08,05,41,4.40
2017,04,08,05,42,5.50
2017,04,08,05,43,4.80
2017,04,08,05,44,4.10
2017,04,08,05,45,4.00
2017,04,08,05,46,3.40
2017,04,08,05,47,4.40
2017,04,08,05,48,4.00
2017,04,08,05,49,4.60
2017,04,08,05,50,3.60
2017,04,08,05,51,3.10
2017,04,08,05,52,3.90
2017,04,08,05,53,3.70
2017,04,08,05,54,1.80
2017,04,08,05,55,2.10
2017,04,08,05,56,2.00
2017,04,08,05,57,0.10
2017,04,08,05,58,5.40
2017,04,08,05,59,7.90
2017,04,08,06,00,5.50
2017,04,08,06,01,1.70
2017,04,08,06,02,1.90
2017,04,08,06,03,1.60
2017,04,08,06,04,2.90
2017,04,08,06,05,3.40
2017,04,08,06,06,2.10
2017,04,08,06,07,3.50
2017,04,08,06,08,2.60
2017,04,08,06,09,0.30
2017,04,08,06,10,2.60
2017,04,08,06,11,1.30
2017,04,08,06,12,2.80
2017,04,08,06,13,0.30
2017,04,08,06,14,0.00
2017,04,08,06,15,0.00
2017,04,08,06,16,0.60
2017,04,08,06,17,4.40
2017,04,08,06,18,4.50
2017,04,08,06,19,3.90
2017,04,08,06,20,2.00
2017,04,08,06,21,1.50
2017,04,08,06,22,2.90
2017,04,08,06,23,2.60
2017,04,08,06,24,4.80
2017,04,08,06,25,4.80
2017,04,08,06,26,5.60
2017,04,08,06,27,4.10
2017,04,08,06,28,3.40
2017,04,08,06,29,3.20
2017,04,08,06,30,3.70
2017,04,08,06,31,3.30
2017,04,08,06,32,4.30
2017,04,08,06,33,2.10
2017,04,08,06,34,0.40
2017,04,08,06,35,0.00
2017,04,08,06,36,0.00
2017,04,08,06,37,0.00
2017,04,08,06,38,0.00
2017,04,08,06,39,0.00
2017,04,08,06,40,0.00
2017,04,08,06,41,0.00
2017,04,08,06,42,0.00
2017,04,08,06,43,0.00
2017,04,08,06,44,0.00
2017,04,08,06,45,0.00
2017,04,08,06,46,0.00
2017,04,08,06,47,0.00
2017,04,08,06,48,0.00
2017,04,08,06,49,0.00
2017,04,08,06,50,0.00
2017,04,08,06,51,0.00
2017,04,08,06,52,0.00
2017,04,08,06,53,0.00
2017,04,08,06,54,0.00
2017,04,08,06,55,0.00
2017,04,08,06,56,0.00
2017,04,08,06,57,0.00
2017,04,08,06,58,0.00
2017,04,08,06,59,0.00
2017,04,08,07,00,0.00
2017,04,08,07,01,0.00
2017,04,08,07,02,0.00
2017,04,08,07,03,0.00
2017,04,08,07,04,0.00
2017,04,08,07,05,0.00
2017,04,08,07,06,0.00
2017,04,08,07,07,0.00
2017,04,08,07,08,0.00
2017,04,08,07,09,0.00
2017,04,08,07,10,0.00
2017,04,08,07,11,2.40
2017,04,08,07,12,4.50
2017,04,08,07,13,3.40
2017,04,08,07,14,2.00
2017,04,08,07,15,2.30
2017,04,08,07,16,3.30
2017,04,08,07,17,3.30
2017,04,08,07,18,3.00
2017,04,08,07,19,2.40
2017,04,08,07,20,0.70
2017,04,08,07,21,0.00
2017,04,08,07,22,0.80
2017,04,08,07,23,0.80
2017,04,08,07,24,2.80
2017,04,08,07,25,2.90
2017,04,08,07,26,0.40
2017,04,08,07,27,0.00
2017,04,08,07,28,0.50
2017,04,08,07,29,3.40
2017,04,08,07,30,4.20
2017,04,08,07,31,5.00
2017,04,08,07,32,3.70
2017,04,08,07,33,3.90
2017,04,08,07,34,3.40
2017,04,08,07,35,3.80
2017,04,08,07,36,3.90
2017,04,08,07,37,4.00
2017,04,08,07,38,3.40
2017,04,08,07,39,3.20
2017,04,08,07,40,4.00
2017,04,08,07,41,4.50
2017,04,08,07,42,2.80
2017,04,08,07,43,2.10
2017,04,08,07,44,4.80
2017,04,08,07,45,4.40
2017,04,08,07,46,3.70
2017,04,08,07,47,1.60
2017,04,08,07,48,2.20
2017,04,08,07,49,0.00
2017,04,08,07,50,0.00
2017,04,08,07,51,0.00
2017,04,08,07,52,0.00
2017,04,08,07,53,0.00
2017,04,08,07,54,0.00
2017,04,08,07,55,0.00
2017,04,08,07,56,0.00
2017,04,08,07,57,0.00
2017,04,08,07,58,0.00
2017,04,08,07,59,1.30
2017,04,08,08,00,3.10
2017,04,08,08,01,2.80
2017,04,08,08,02,2.10
2017,04,08,08,03,1.90
2017,04,08,08,04,1.60
2017,04,08,08,05,1.80
2017,04,08,08,06,1.20
2017,04,08,08,07,0.30
2017,04,08,08,08,0.00
2017,04,08,08,09,0.40
2017,04,08,08,10,3.00
2017,04,08,08,11,1.90
2017,04,08,08,12,1.00
2017,04,08,08,13,2.00
2017,04,08,08,14,2.00
2017,04,08,08,15,2.00
2017,04,08,08,16,0.90
2017,04,08,08,17,0.50
2017,04,08,08,18,0.20
2017,04,08,08,19,0.70
2017,04,08,08,20,2.90
2017,04,08,08,21,1.90
2017,04,08,08,22,0.00
2017,04,08,08,23,0.00
2017,04,08,08,24,1.20
2017,04,08,08,25,2.90
2017,04,08,08,26,2.00
2017,04,08,08,27,2.00
2017,04,08,08,28,1.00
2017,04,08,08,29,0.10
2017,04,08,08,30,1.00
2017,04,08,08,31,0.20
2017,04,08,08,32,0.00
2017,04,08,08,33,0.00
2017,04,08,08,34,0.00
2017,04,08,08,35,0.00
2017,04,08,08,36,0.00
2017,04,08,08,37,0.00
2017,04,08,08,38,0.00
2017,04,08,08,39,1.80
2017,04,08,08,40,1.40
2017,04,08,08,41,2.60
2017,04,08,08,42,1.70
2017,04,08,08,43,0.20
2017,04,08,08,44,0.00
2017,04,08,08,45,0.00
2017,04,08,08,46,1.10
2017,04,08,08,47,1.70
2017,04,08,08,48,0.40
2017,04,08,08,49,0.00
2017,04,08,08,50,0.00
2017,04,08,08,51,0.00
2017,04,08,08,52,1.10
2017,04,08,08,53,1.80
2017,04,08,08,54,0.00
2017,04,08,08,55,0.00
2017,04,08,08,56,0.00
2017,04,08,08,57,0.00
2017,04,08,08,58,0.00
2017,04,08,08,59,0.00
2017,04,08,09,00,0.00
2017,04,08,09,01,0.00
2017,04,08,09,02,0.00
2017,04,08,09,03,0.00
2017,04,08,09,04,0.00
2017,04,08,09,05,0.00
2017,04,08,09,06,0.00
2017,04,08,09,07,0.00
2017,04,08,09,08,0.00
2017,04,08,09,09,0.00
2017,04,08,09,10,0.00
2017,04,08,09,11,0.10
2017,04,08,09,12,0.00
2017,04,08,09,13,0.30
2017,04,08,09,14,0.70
2017,04,08,09,15,0.30
2017,04,08,09,16,0.50
2017,04,08,09,17,0.00
2017,04,08,09,18,0.00
2017,04,08,09,19,0.10
2017,04,08,09,20,0.00
2017,04,08,09,21,0.80
2017,04,08,09,22,0.30
2017,04,08,09,23,0.00
2017,04,08,09,24,0.00
2017,04,08,09,25,0.00
2017,04,08,09,26,0.00
2017,04,08,09,27,0.00
2017,04,08,09,28,0.00
2017,04,08,09,29,0.00
2017,04,08,09,30,0.00
2017,04,08,09,31,0.10
2017,04,08,09,32,1.60
2017,04,08,09,33,0.00
2017,04,08,09,34,0.00
2017,04,08,09,35,0.00
2017,04,08,09,36,0.00
2017,04,08,09,37,0.20
2017,04,08,09,38,1.40
2017,04,08,09,39,0.20
2017,04,08,09,40,0.00
2017,04,08,09,41,0.20
2017,04,08,09,42,0.00
2017,04,08,09,43,0.00
2017,04,08,09,44,0.00
2017,04,08,09,45,0.00
2017,04,08,09,46,0.00
2017,04,08,09,47,0.00
2017,04,08,09,48,0.00
2017,04,08,09,49,0.00
2017,04,08,09,50,0.00
2017,04,08,09,51,0.00
2017,04,08,09,52,0.70
2017,04,08,09,53,0.40
2017,04,08,09,54,0.00
2017,04,08,09,55,0.00
2017,04,08,09,56,0.00
2017,04,08,09,57,0.00
2017,04,08,09,58,0.00
2017,04,08,09,59,0.00
2017,04,08,10,00,0.00
2017,04,08,10,01,0.20
2017,04,08,10,02,0.00
2017,04,08,10,03,0.40
2017,04,08,10,04,0.10
2017,04,08,10,05,0.00
2017,04,08,10,06,0.00
2017,04,08,10,07,0.00
2017,04,08,10,08,0.00
2017,04,08,10,09,0.00
2017,04,08,10,10,0.00
2017,04,08,10,11,0.00
2017,04,08,10,12,0.00
2017,04,08,10,13,0.00
2017,04,08,10,14,0.00
2017,04,08,10,15,0.00
2017,04,08,10,16,0.00
2017,04,08,10,17,0.00
2017,04,08,10,18,0.00
2017,04,08,10,19,0.00
2017,04,08,10,20,0.00
2017,04,08,10,21,0.00
2017,04,08,10,22,0.00
2017,04,08,10,23,0.00
2017,04,08,10,24,0.00
2017,04,08,10,25,0.00
2017,04,08,10,26,0.00
2017,04,08,10,27,0.00
2017,04,08,10,28,0.00
2017,04,08,10,29,0.00
2017,04,08,10,30,0.00
2017,04,08,10,31,0.00
2017,04,08,10,32,0.00
2017,04,08,10,33,0.00
2017,04,08,10,34,0.00
2017,04,08,10,35,0.10
2017,04,08,10,36,1.00
2017,04,08,10,37,0.90
2017,04,08,10,38,2.10
2017,04,08,10,39,1.80
2017,04,08,10,40,0.40
2017,04,08,10,41,0.00
2017,04,08,10,42,0.00
2017,04,08,10,43,0.00
2017,04,08,10,44,0.00
2017,04,08,10,45,0.00
2017,04,08,10,46,0.00
2017,04,08,10,47,0.00
2017,04,08,10,48,0.00
2017,04,08,10,49,0.00
2017,04,08,10,50,0.00
2017,04,08,10,51,0.00
2017,04,08,10,52,0.00
2017,04,08,10,53,0.00
2017,04,08,10,54,2.00
2017,04,08,10,55,3.90
2017,04,08,10,56,0.90
2017,04,08,10,57,0.00
2017,04,08,10,58,0.00
2017,04,08,10,59,0.00
2017,04,08,11,00,0.00
2017,04,08,11,01,0.00
2017,04,08,11,02,0.00
2017,04,08,11,03,0.00
2017,04,08,11,04,0.00
2017,04,08,11,05,0.00
2017,04,08,11,06,0.00
2017,04,08,11,07,0.00
2017,04,08,11,08,0.00
2017,04,08,11,09,0.00
2017,04,08,11,10,0.00
2017,04,08,11,11,0.00
2017,04,08,11,12,0.00
2017,04,08,11,13,0.00
2017,04,08,11,14,0.00
2017,04,08,11,15,0.00
2017,04,08,11,16,0.00
2017,04,08,11,17,0.00
2017,04,08,11,18,0.00
2017,04,08,11,19,0.40
2017,04,08,11,20,0.00
2017,04,08,11,21,0.00
2017,04,08,11,22,0.00
2017,04,08,11,23,0.00
2017,04,08,11,24,0.00
2017,04,08,11,25,0.00
2017,04,08,11,26,0.00
2017,04,08,11,27,0.00
2017,04,08,11,28,0.00
2017,04,08,11,29,0.00
2017,04,08,11,30,1.90
2017,04,08,11,31,1.30
2017,04,08,11,32,0.00
2017,04,08,11,33,0.00
2017,04,08,11,34,0.10
2017,04,08,11,35,0.10
2017,04,08,11,36,0.00
2017,04,08,11,37,0.00
2017,04,08,11,38,0.00
2017,04,08,11,39,0.00
2017,04,08,11,40,0.10
2017,04,08,11,41,0.30
2017,04,08,11,42,1.40
2017,04,08,11,43,0.60
2017,04,08,11,44,0.70
2017,04,08,11,45,0.20
2017,04,08,11,46,1.20
2017,04,08,11,47,2.30
2017,04,08,11,48,2.80
2017,04,08,11,49,1.50
2017,04,08,11,50,3.70
2017,04,08,11,51,4.20
2017,04,08,11,52,2.10
2017,04,08,11,53,0.80
2017,04,08,11,54,5.80
2017,04,08,11,55,6.70
2017,04,08,11,56,8.10
2017,04,08,11,57,5.70
2017,04,08,11,58,7.40
2017,04,08,11,59,6.30
2017,04,08,12,00,4.70
2017,04,08,12,01,4.80
2017,04,08,12,02,4.80
2017,04,08,12,03,7.50
2017,04,08,12,04,5.60
2017,04,08,12,05,8.70
2017,04,08,12,06,7.10
2017,04,08,12,07,6.40
2017,04,08,12,08,7.80
2017,04,08,12,09,8.70
2017,04,08,12,10,9.90
2017,04,08,12,11,12.80
2017,04,08,12,12,8.60
2017,04,08,12,13,10.20
2017,04,08,12,14,11.30
2017,04,08,12,15,12.80
2017,04,08,12,16,7.80
2017,04,08,12,17,12.30
2017,04,08,12,18,11.60
2017,04,08,12,19,11.30
2017,04,08,12,20,8.00
2017,04,08,12,21,4.10
2017,04,08,12,22,7.30
2017,04,08,12,23,11.70
2017,04,08,12,24,7.60
2017,04,08,12,25,9.80
2017,04,08,12,26,8.70
2017,04,08,12,27,11.30
2017,04,08,12,28,8.20
2017,04,08,12,29,8.30
2017,04,08,12,30,6.80
2017,04,08,12,31,9.50
2017,04,08,12,32,8.10
2017,04,08,12,33,8.10
2017,04,08,12,34,8.50
2017,04,08,12,35,6.30
2017,04,08,12,36,7.70
2017,04,08,12,37,10.00
2017,04,08,12,38,11.10
2017,04,08,12,39,7.00
2017,04,08,12,40,3.80
2017,04,08,12,41,3.40
2017,04,08,12,42,5.90
2017,04,08,12,43,10.20
2017,04,08,12,44,5.30
2017,04,08,12,45,11.30
2017,04,08,12,46,9.90
2017,04,08,12,47,9.20
2017,04,08,12,48,8.90
2017,04,08,12,49,7.20
2017,04,08,12,50,8.90
2017,04,08,12,51,11.20
2017,04,08,12,52,12.30
2017,04,08,12,53,9.50
2017,04,08,12,54,8.70
2017,04,08,12,55,9.20
2017,04,08,12,56,8.80
2017,04,08,12,57,5.90
2017,04,08,12,58,6.10
2017,04,08,12,59,5.90
2017,04,08,13,00,12.70
2017,04,08,13,01,10.60
2017,04,08,13,02,9.30
2017,04,08,13,03,9.70
2017,04,08,13,04,10.20
2017,04,08,13,05,3.70
2017,04,08,13,06,8.40
2017,04,08,13,07,7.70
2017,04,08,13,08,11.90
2017,04,08,13,09,8.50
2017,04,08,13,10,9.90
2017,04,08,13,11,15.30
2017,04,08,13,12,6.70
2017,04,08,13,13,10.60
2017,04,08,13,14,12.20
2017,04,08,13,15,12.50
2017,04,08,13,16,12.10
2017,04,08,13,17,10.60
2017,04,08,13,18,14.00
2017,04,08,13,19,16.10
2017,04,08,13,20,15.20
2017,04,08,13,21,13.00
2017,04,08,13,22,12.00
2017,04,08,13,23,11.20
2017,04,08,13,24,8.40
2017,04,08,13,25,9.20
2017,04,08,13,26,7.50
2017,04,08,13,27,5.80
2017,04,08,13,28,5.80
2017,04,08,13,29,7.00
2017,04,08,13,30,4.40
2017,04,08,13,31,5.10
2017,04,08,13,32,3.70
2017,04,08,13,33,4.70
2017,04,08,13,34,7.40
2017,04,08,13,35,4.20
2017,04,08,13,36,2.90
2017,04,08,13,37,6.70
2017,04,08,13,38,4.20
2017,04,08,13,39,10.00
2017,04,08,13,40,12.00
2017,04,08,13,41,10.60
2017,04,08,13,42,10.70
2017,04,08,13,43,10.40
2017,04,08,13,44,6.70
2017,04,08,13,45,13.20
2017,04,08,13,46,13.30
2017,04,08,13,47,8.10
2017,04,08,13,48,9.70
2017,04,08,13,49,10.50
2017,04,08,13,50,10.80
2017,04,08,13,51,12.20
2017,04,08,13,52,14.10
2017,04,08,13,53,13.90
2017,04,08,13,54,12.10
2017,04,08,13,55,14.10
2017,04,08,13,56,12.00
2017,04,08,13,57,11.20
2017,04,08,13,58,7.20
2017,04,08,13,59,12.80
2017,04,08,14,00,11.90
2017,04,08,14,01,13.30
2017,04,08,14,02,13.10
2017,04,08,14,03,11.30
2017,04,08,14,04,10.70
2017,04,08,14,05,18.30
2017,04,08,14,06,15.90
2017,04,08,14,07,12.70
2017,04,08,14,08,14.00
2017,04,08,14,09,9.60
2017,04,08,14,10,10.30
2017,04,08,14,11,12.30
2017,04,08,14,12,12.30
2017,04,08,14,13,12.70
2017,04,08,14,14,9.10
2017,04,08,14,15,11.50
2017,04,08,14,16,15.40
2017,04,08,14,17,16.00
2017,04,08,14,18,12.50
2017,04,08,14,19,16.20
2017,04,08,14,20,13.40
2017,04,08,14,21,13.50
2017,04,08,14,22,16.00
2017,04,08,14,23,12.70
2017,04,08,14,24,14.30
2017,04,08,14,25,10.20
2017,04,08,14,26,17.10
2017,04,08,14,27,15.20
2017,04,08,14,28,13.10
2017,04,08,14,29,13.40
2017,04,08,14,30,11.80
2017,04,08,14,31,11.80
2017,04,08,14,32,6.30
2017,04,08,14,33,12.40
2017,04,08,14,34,7.70
2017,04,08,14,35,8.80
2017,04,08,14,36,8.60
2017,04,08,14,37,13.00
2017,04,08,14,38,14.10
2017,04,08,14,39,16.50
2017,04,08,14,40,14.40
2017,04,08,14,41,17.00
2017,04,08,14,42,16.30
2017,04,08,14,43,16.90
2017,04,08,14,44,17.00
2017,04,08,14,45,12.60
2017,04,08,14,46,13.70
2017,04,08,14,47,14.00
2017,04,08,14,48,12.40
2017,04,08,14,49,14.50
2017,04,08,14,50,11.50
2017,04,08,14,51,16.60
2017,04,08,14,52,9.20
2017,04,08,14,53,17.20
2017,04,08,14,54,13.30
2017,04,08,14,55,13.20
2017,04,08,14,56,10.10
2017,04,08,14,57,10.80
2017,04,08,14,58,14.00
2017,04,08,14,59,9.10
2017,04,08,15,00,9.20
2017,04,08,15,01,12.40
2017,04,08,15,02,13.80
2017,04,08,15,03,10.80
2017,04,08,15,04,14.90
2017,04,08,15,05,12.40
2017,04,08,15,06,8.10
2017,04,08,15,07,12.20
2017,04,08,15,08,14.60
2017,04,08,15,09,14.60
2017,04,08,15,10,13.60
2017,04,08,15,11,11.60
2017,04,08,15,12,11.40
2017,04,08,15,13,16.80
2017,04,08,15,14,13.80
2017,04,08,15,15,13.90
2017,04,08,15,16,12.70
2017,04,08,15,17,9.90
2017,04,08,15,18,14.30
2017,04,08,15,19,11.00
2017,04,08,15,20,12.10
2017,04,08,15,21,13.00
2017,04,08,15,22,15.90
2017,04,08,15,23,11.40
2017,04,08,15,24,12.20
2017,04,08,15,25,9.60
2017,04,08,15,26,12.70
2017,04,08,15,27,12.70
2017,04,08,15,28,12.30
2017,04,08,15,29,10.70
2017,04,08,15,30,11.30
2017,04,08,15,31,12.90
2017,04,08,15,32,12.60
2017,04,08,15,33,9.20
2017,04,08,15,34,11.30
2017,04,08,15,35,7.70
2017,04,08,15,36,13.50
2017,04,08,15,37,9.90
2017,04,08,15,38,15.20
2017,04,08,15,39,10.40
2017,04,08,15,40,9.70
2017,04,08,15,41,15.00
2017,04,08,15,42,12.90
2017,04,08,15,43,11.40
2017,04,08,15,44,9.40
2017,04,08,15,45,13.50
2017,04,08,15,46,15.90
2017,04,08,15,47,15.10
2017,04,08,15,48,9.10
2017,04,08,15,49,9.40
2017,04,08,15,50,10.60
2017,04,08,15,51,12.60
2017,04,08,15,52,12.10
2017,04,08,15,53,10.80
2017,04,08,15,54,5.70
2017,04,08,15,55,9.90
2017,04,08,15,56,11.10
2017,04,08,15,57,11.30
2017,04,08,15,58,10.80
2017,04,08,15,59,9.40
2017,04,08,16,00,7.60
2017,04,08,16,01,10.20
2017,04,08,16,02,9.10
2017,04,08,16,03,8.20
2017,04,08,16,04,13.50
2017,04,08,16,05,13.60
2017,04,08,16,06,8.90
2017,04,08,16,07,15.40
2017,04,08,16,08,11.80
2017,04,08,16,09,11.80
2017,04,08,16,10,10.00
2017,04,08,16,11,10.30
2017,04,08,16,12,10.50
2017,04,08,16,13,9.10
2017,04,08,16,14,10.20
2017,04,08,16,15,7.90
2017,04,08,16,16,10.80
2017,04,08,16,17,11.70
2017,04,08,16,18,10.00
2017,04,08,16,19,11.70
2017,04,08,16,20,12.40
2017,04,08,16,21,11.10
2017,04,08,16,22,11.70
2017,04,08,16,23,11.30
2017,04,08,16,24,11.30
2017,04,08,16,25,8.50
2017,04,08,16,26,7.90
2017,04,08,16,27,6.10
2017,04,08,16,28,10.60
2017,04,08,16,29,10.80
2017,04,08,16,30,14.00
2017,04,08,16,31,10.80
2017,04,08,16,32,10.60
2017,04,08,16,33,7.90
2017,04,08,16,34,7.00
2017,04,08,16,35,9.40
2017,04,08,16,36,9.40
2017,04,08,16,37,10.90
2017,04,08,16,38,9.70
2017,04,08,16,39,11.50
2017,04,08,16,40,9.60
2017,04,08,16,41,11.10
2017,04,08,16,42,10.90
2017,04,08,16,43,11.60
2017,04,08,16,44,8.40
2017,04,08,16,45,12.40
2017,04,08,16,46,13.20
2017,04,08,16,47,10.80
2017,04,08,16,48,14.30
2017,04,08,16,49,17.80
2017,04,08,16,50,12.70
2017,04,08,16,51,8.50
2017,04,08,16,52,14.80
2017,04,08,16,53,11.40
2017,04,08,16,54,11.20
2017,04,08,16,55,13.20
2017,04,08,16,56,13.60
2017,04,08,16,57,13.20
2017,04,08,16,58,13.70
2017,04,08,16,59,14.10
2017,04,08,17,00,11.20
2017,04,08,17,01,9.10
2017,04,08,17,02,14.80
2017,04,08,17,03,12.10
2017,04,08,17,04,13.80
2017,04,08,17,05,11.00
2017,04,08,17,06,12.00
2017,04,08,17,07,12.00
2017,04,08,17,08,9.70
2017,04,08,17,09,6.20
2017,04,08,17,10,6.90
2017,04,08,17,11,12.80
2017,04,08,17,12,11.00
2017,04,08,17,13,11.60
2017,04,08,17,14,15.40
2017,04,08,17,15,15.90
2017,04,08,17,16,14.60
2017,04,08,17,17,7.70
2017,04,08,17,18,11.10
2017,04,08,17,19,9.90
2017,04,08,17,20,9.00
2017,04,08,17,21,7.40
2017,04,08,17,22,9.40
2017,04,08,17,23,11.10
2017,04,08,17,24,8.30
2017,04,08,17,25,12.40
2017,04,08,17,26,14.40
2017,04,08,17,27,11.90
2017,04,08,17,28,8.00
2017,04,08,17,29,13.50
2017,04,08,17,30,9.60
2017,04,08,17,31,11.00
2017,04,08,17,32,11.00
2017,04,08,17,33,7.60
2017,04,08,17,34,16.80
2017,04,08,17,35,14.80
2017,04,08,17,36,11.30
2017,04,08,17,37,10.00
2017,04,08,17,38,12.90
2017,04,08,17,39,12.40
2017,04,08,17,40,9.00
2017,04,08,17,41,12.60
2017,04,08,17,42,12.00
2017,04,08,17,43,11.80
2017,04,08,17,44,9.70
2017,04,08,17,45,16.20
2017,04,08,17,46,13.50
2017,04,08,17,47,14.30
2017,04,08,17,48,12.90
2017,04,08,17,49,14.50
2017,04,08,17,50,18.40
2017,04,08,17,51,14.80